Weather History for Staunton, VA

Change the Weather History Date:

Sunday, January 29, 2012

  Actual Average Record
Temperature  
Mean Temperature 35 °F -  
Max Temperature 44 °F 43 °F 75 °F (2002)
Min Temperature 26 °F 24 °F 1 °F (2014)
Degree Days  
Heating Degree Days 30    
Moisture  
Dew Point 12 °F    
Average Humidity 39    
Maximum Humidity 64    
Minimum Humidity 23    
Precipitation  
Precipitation 0.00 in - - ()
Sea Level Pressure  
Sea Level Pressure 30.21 in    
Wind  
Wind Speed 7 mph (SW)    
Max Wind Speed 20 mph    
Max Gust Speed 26 mph    
Visibility 10 miles    
Events      
Averages and records for this station are not official NWS values.
T = Trace of Precipitation, MM = Missing Value Source: NWS Daily Summary

Daily Weather History Graph

Daily Weather History Graph

Search for Another Location

Airport:

Trip Planner

Search our weather history database for the weather conditions in past years. The results will help you decide how hot, cold, wet, or windy it might be!

Date:

Astronomy

Jan. 29, 2012 Rise Set
Actual Time 7:23 AM EST 5:34 PM EST
Civil Twilight 6:55 AM EST 6:02 PM EST
Nautical Twilight 6:23 AM EST 6:34 PM EST
Astronomical Twilight 5:52 AM EST 7:05 PM EST
Moon 10:20 AM EST No Moon Set
Length of Visible Light 11h 07m
Length of Day
10h 10m
Waxing Crescent, 36% of the Moon is Illuminated
Jan 29
Waxing Crescent
Jan 30
First Quarter
Feb 7
Full
Feb 14
Last Quarter
Feb 21
New

Hourly Weather History & Observations

Time (EST) Temp. Windchill Dew Point Humidity Pressure Visibility Wind Dir Wind Speed Gust Speed Precip Events Conditions
12:15 AM 30.2 °F 24.3 °F 14.0 °F 51% 30.21 in 10.0 mi West 5.8 mph - N/A   Clear
12:35 AM 30.2 °F 25.4 °F 14.0 °F 51% 30.22 in 10.0 mi West 4.6 mph - N/A   Clear
12:55 AM 28.4 °F - 14.0 °F 55% 30.22 in 10.0 mi Calm Calm - N/A   Clear
1:15 AM 32.0 °F 26.4 °F 12.2 °F 44% 30.22 in 10.0 mi West 5.8 mph - N/A   Clear
1:35 AM 32.0 °F 26.4 °F 12.2 °F 44% 30.22 in 10.0 mi West 5.8 mph - N/A   Clear
1:55 AM 32.0 °F 26.4 °F 10.4 °F 41% 30.22 in 10.0 mi West 5.8 mph - N/A   Clear
2:35 AM 32.0 °F 27.5 °F 12.2 °F 44% 30.23 in 10.0 mi West 4.6 mph - N/A   Clear
2:55 AM 32.0 °F 25.6 °F 10.4 °F 41% 30.23 in 10.0 mi West 6.9 mph - N/A   Clear
3:15 AM 32.0 °F 25.6 °F 10.4 °F 41% 30.24 in 10.0 mi West 6.9 mph - N/A   Clear
3:35 AM 32.0 °F 25.6 °F 10.4 °F 41% 30.24 in 10.0 mi West 6.9 mph - N/A   Clear
3:55 AM 32.0 °F 25.6 °F 12.2 °F 44% 30.24 in 10.0 mi West 6.9 mph - N/A   Clear
4:15 AM 32.0 °F 25.6 °F 10.4 °F 41% 30.24 in 10.0 mi West 6.9 mph - N/A   Clear
4:35 AM 32.0 °F - 12.2 °F 44% 30.24 in 10.0 mi Calm Calm - N/A   Clear
4:55 AM 30.2 °F 26.7 °F 14.0 °F 51% 30.25 in 10.0 mi SE 3.5 mph - N/A   Clear
5:15 AM 28.4 °F 24.6 °F 14.0 °F 55% 30.25 in 10.0 mi South 3.5 mph - N/A   Clear
5:35 AM 30.2 °F - 14.0 °F 51% 30.25 in 10.0 mi Calm Calm - N/A   Clear
5:55 AM 30.2 °F - 14.0 °F 51% 30.26 in 10.0 mi Calm Calm - N/A   Clear
6:15 AM 30.2 °F - 14.0 °F 51% 30.26 in 10.0 mi Calm Calm - N/A   Clear
6:35 AM 30.2 °F 26.7 °F 14.0 °F 51% 30.26 in 10.0 mi SSW 3.5 mph - N/A   Clear
6:55 AM 28.4 °F 24.6 °F 14.0 °F 55% 30.26 in 10.0 mi SSW 3.5 mph - N/A   Clear
7:15 AM 26.6 °F - 14.0 °F 59% 30.27 in 10.0 mi Calm Calm - N/A   Clear
7:35 AM 26.6 °F - 14.0 °F 59% 30.27 in 10.0 mi Calm Calm - N/A   Clear
7:55 AM 28.4 °F - 14.0 °F 55% 30.28 in 10.0 mi Calm Calm - N/A   Clear
8:15 AM 28.4 °F - 17.6 °F 64% 30.28 in 10.0 mi Calm Calm - N/A   Clear
8:35 AM 30.2 °F 25.4 °F 17.6 °F 60% 30.28 in 10.0 mi South 4.6 mph - N/A   Clear
8:55 AM 32.0 °F 25.6 °F 15.8 °F 51% 30.28 in 10.0 mi SSW 6.9 mph - N/A   Clear
9:15 AM 32.0 °F 25.6 °F 15.8 °F 51% 30.28 in 10.0 mi SW 6.9 mph - N/A   Clear
9:35 AM 33.8 °F 25.8 °F 14.0 °F 44% 30.28 in 10.0 mi SW 10.4 mph - N/A   Clear
9:55 AM 35.6 °F 28.0 °F 12.2 °F 38% 30.29 in 10.0 mi SW 10.4 mph - N/A   Clear
10:15 AM 37.4 °F 30.8 °F 12.2 °F 36% 30.29 in 10.0 mi SW 9.2 mph - N/A   Clear
10:35 AM 37.4 °F 28.5 °F 10.4 °F 33% 30.28 in 10.0 mi SW 15.0 mph - N/A   Clear
10:55 AM 37.4 °F 29.3 °F 12.2 °F 36% 30.29 in 10.0 mi SW 12.7 mph 17.3 mph N/A   Clear
11:15 AM 37.4 °F 30.3 °F 12.2 °F 36% 30.28 in 10.0 mi WSW 10.4 mph - N/A   Clear
11:35 AM 37.4 °F 29.3 °F 12.2 °F 36% 30.27 in 10.0 mi SSW 12.7 mph - N/A   Clear
12:15 PM 41.0 °F 33.9 °F 10.4 °F 29% 30.25 in 10.0 mi SW 12.7 mph 24.2 mph N/A   Clear
12:35 PM 41.0 °F 34.7 °F 12.2 °F 31% 30.23 in 10.0 mi SW 10.4 mph 16.1 mph N/A   Clear
12:55 PM 42.8 °F 36.2 °F 12.2 °F 29% 30.22 in 10.0 mi SSW 12.7 mph 18.4 mph N/A   Clear
1:15 PM 42.8 °F 35.4 °F 10.4 °F 27% 30.20 in 10.0 mi SW 15.0 mph 21.9 mph N/A   Clear
1:35 PM 42.8 °F 35.1 °F 10.4 °F 27% 30.19 in 10.0 mi WSW 16.1 mph 23.0 mph N/A   Clear
1:55 PM 44.6 °F 38.1 °F 10.4 °F 25% 30.17 in 10.0 mi SW 13.8 mph 19.6 mph N/A   Clear
2:15 PM 44.6 °F 36.6 °F 10.4 °F 25% 30.16 in 10.0 mi SSW 19.6 mph 23.0 mph N/A   Clear
2:35 PM 44.6 °F 36.9 °F 10.4 °F 25% 30.15 in 10.0 mi WSW 18.4 mph 25.3 mph N/A   Clear
2:55 PM 44.6 °F 36.9 °F 10.4 °F 25% 30.14 in 10.0 mi SW 18.4 mph 26.5 mph N/A   Clear
3:15 PM 44.6 °F 37.8 °F 8.6 °F 23% 30.13 in 10.0 mi SW 15.0 mph 24.2 mph N/A   Clear
3:35 PM 44.6 °F 36.9 °F 8.6 °F 23% 30.12 in 10.0 mi SW 18.4 mph 24.2 mph N/A   Scattered Clouds
3:55 PM 44.6 °F 37.8 °F 8.6 °F 23% 30.11 in 10.0 mi SW 15.0 mph 25.3 mph N/A   Scattered Clouds
4:15 PM 44.6 °F 37.2 °F 8.6 °F 23% 30.11 in 10.0 mi SW 17.3 mph 24.2 mph N/A   Clear
4:35 PM 44.6 °F 38.1 °F 8.6 °F 23% 30.10 in 10.0 mi WSW 13.8 mph 24.2 mph N/A   Clear
4:55 PM 42.8 °F 35.4 °F 8.6 °F 25% 30.10 in 10.0 mi SW 15.0 mph 20.7 mph N/A   Scattered Clouds
5:15 PM 42.8 °F 36.6 °F 8.6 °F 25% 30.10 in 10.0 mi SSW 11.5 mph - N/A   Scattered Clouds
5:35 PM 42.8 °F 37.5 °F 8.6 °F 25% 30.09 in 10.0 mi SSW 9.2 mph - N/A   Scattered Clouds
5:55 PM 41.0 °F 35.8 °F 10.4 °F 29% 30.09 in 10.0 mi SSW 8.1 mph - N/A   Clear
6:15 PM 37.4 °F 32.1 °F 10.4 °F 33% 30.10 in 10.0 mi South 6.9 mph - N/A   Clear
6:35 PM 37.4 °F 32.8 °F 10.4 °F 33% 30.10 in 10.0 mi South 5.8 mph - N/A   Clear
6:55 PM 37.4 °F 32.1 °F 10.4 °F 33% 30.09 in 10.0 mi South 6.9 mph - N/A   Clear
7:15 PM 37.4 °F 31.4 °F 10.4 °F 33% 30.09 in 10.0 mi South 8.1 mph - N/A   Clear
7:35 PM 37.4 °F 32.1 °F 10.4 °F 33% 30.09 in 10.0 mi South 6.9 mph - N/A   Scattered Clouds
7:55 PM 39.2 °F 32.5 °F 10.4 °F 31% 30.09 in 10.0 mi South 10.4 mph - N/A   Scattered Clouds
8:15 PM 41.0 °F 34.3 °F 10.4 °F 29% 30.08 in 10.0 mi SSW 11.5 mph - N/A   Scattered Clouds
8:35 PM 39.2 °F 32.0 °F 10.4 °F 31% 30.08 in 10.0 mi SSW 11.5 mph 16.1 mph N/A   Mostly Cloudy
8:55 PM 37.4 °F 32.1 °F 12.2 °F 36% 30.09 in 10.0 mi SW 6.9 mph - N/A   Mostly Cloudy
9:15 PM 37.4 °F 32.8 °F 12.2 °F 36% 30.09 in 10.0 mi SSW 5.8 mph - N/A   Overcast
9:35 PM 35.6 °F 31.7 °F 12.2 °F 38% 30.09 in 10.0 mi SSW 4.6 mph - N/A   Mostly Cloudy
9:55 PM 33.8 °F 29.6 °F 14.0 °F 44% 30.09 in 10.0 mi SW 4.6 mph - N/A   Mostly Cloudy
10:15 PM 35.6 °F 32.8 °F 14.0 °F 41% 30.11 in 10.0 mi WNW 3.5 mph - N/A   Mostly Cloudy
10:35 PM 39.2 °F 31.6 °F 21.2 °F 49% 30.13 in 10.0 mi NW 12.7 mph 18.4 mph N/A   Overcast
10:55 PM 37.4 °F 29.8 °F 26.6 °F 65% 30.15 in 10.0 mi NW 11.5 mph 17.3 mph N/A   Overcast
11:15 PM 37.4 °F 29.3 °F 23.0 °F 56% 30.17 in 10.0 mi NNW 12.7 mph 18.4 mph N/A   Overcast
11:35 PM 35.6 °F 27.5 °F 21.2 °F 56% 30.19 in 10.0 mi NW 11.5 mph - N/A   Overcast
11:55 PM 35.6 °F 28.6 °F 21.2 °F 56% 30.19 in 10.0 mi NNW 9.2 mph - N/A   Overcast